COSMOS 2251 DEB, 33760

Orbit data source: Space-Track

COSMOS 2251 DEB, 33760 is space debris in LEO originally from a launch on Wed, 16 Jun 1993 UTC launched from the Plesetsk Missile And Space Complex (PKMTR). The debris from Iridium 33, an American commercial communications satellite, has been tracked extensively since its accidental collision with the defunct Russian satellite Cosmos 2251 in 2009. This event, occurring at high speed in low Earth orbit (LEO), generated thousands of pieces of space debris, significantly increasing the risk of further collisions. The Iridium 33 debris cloud has impacted space traffic management and orbital debris mitigation strategies, making it a subject of ongoing study in space situational awareness.

Loading next visibility...
Identifier
33760, 1993-036H
Orbit
LEO
Country
Flag of CISCIS
Related business
Manufacturer
Unknown
Mission
Spacecraft
Bus & Motor
Unknown
Mass
Unknown
Launch date (UTC)
1993-06-16 (33 years ago)
Launch vehicle
Unknown
Launch site
Plesetsk Missile And Space Complex (PKMTR)
Object type
Payload
Rocket body
Debris
Shape & HBR
Unknown shape, 0.2 m
Radar Cross Section
Medium (>0.1 m² and <1 m²)

Expand to show TLE details & history
Last TLE update: 1 day ago

TLE from 1 day ago
0 COSMOS 2251 DEB
1 33760U 93036H   26237.29846630  .00000142  00000-0  58185-4 0  9996
2 33760  74.0325 172.3782 0021179 214.8933 300.6733 14.35805653917922
Epoch: 2026-08-25T07:09Z
TLE epoch observation values (Epoch: 2026-08-25T07:09:47.488Z)
Latitude
23.66125°
Longitude
-95.80113°
Altitude
767.243 km
Speed
7.477 km/s
True Right ascension
23h 00m 51s
True Declination
23° 32' 07"
Sunlit
Object was in full shadow at epoch
Visualization orbit readout
Latitude
Unknown
Longitude
Unknown
Altitude
Unknown
Speed
Unknown
Apparent Right ascension
Unknown
Apparent Declination
Unknown
Sunlit
N/A
Visualization observer readout
Local Sidereal Time
00:34:26
Azimuth
Unknown
Elevation
Unknown
Doppler factor
Unknown
Orbital elements
Apogee altitude
785.154 km
Perigee altitude
754.876 km
Semi-major axis
7,148.152 km
Eccentricity
0.00212
Inclination
74.0325°
RAAN
172.3782°
Arg. of periapsis
214.8933°
True anomaly
300.46428°
Mean anomaly
300.6733°
Eccentric anomaly
300.56882°
Mean motion
3.59131 °/min
Orbital period
100.24 mins
BSTAR
0.000058185
Loading maneuver chart data...
Computing Atmospheric mass density...
Loading historical data...
Loading historical data...
Loading historical data...
Loading historical data...
Loading historical data...
Loading historical data...
Loading historical data...

Documentation

Showing up to 5 results
|